Location: Crescent
(42.8242°N, 73.7329°W)
Time: 06:55:10
(UTC+00:00)

Vanguard 3 - Pass Details

Date: 15 November 2024
Orbit: 507 x 3221 km, 33.4° (Epoch: 04 December)

Event Time Altitude Azimuth Distance (km) Brightness Sun altitude
Rises 22:00:25 0° 275° (W) 6,089 13.0 -5.8°
Reaches altitude 10° 22:05:36 10° 267° (W) 4,607 12.5 -6.7°
Maximum altitude 22:15:14 30° 213° (SSW) 2,353 10.1 -8.3°
Drops below altitude 10° 22:21:21 10° 154° (SSE) 2,854 9.9 -9.4°
Sets 22:23:48 0° 142° (SE) 3,520 10.2 -9.8°
